CST,Max TemperatureF,Mean TemperatureF,Min TemperatureF,Max Dew PointF,MeanDew PointF,Min DewpointF,Max Humidity, Mean Humidity, Min Humidity, Max Sea Level PressureIn, Mean Sea Level PressureIn, Min Sea Level PressureIn, Max VisibilityMiles, Mean VisibilityMiles, Min VisibilityMiles, Max Wind SpeedMPH, Mean Wind SpeedMPH, Max Gust SpeedMPH,PrecipitationIn, CloudCover, Events, WindDirDegrees
2012-12-1,63,53,42,47,44,41,100,78,56,30.34,30.29,30.25,10,7,0,12,3,18,0.00,2,Fog,173
2012-12-2,65,59,52,48,47,44,77,65,52,30.30,30.25,30.21,10,10,10,14,7,23,0.00,4,,194
2012-12-3,68,60,51,49,47,45,77,63,48,30.28,30.23,30.19,10,10,10,13,4,18,0.00,0,,190
2012-12-4,66,58,50,55,51,48,83,70,56,30.25,30.19,30.14,10,10,5,14,6,25,T,7,Rain,200
2012-12-5,57,48,39,55,38,29,94,67,35,30.28,30.21,30.14,10,10,3,14,7,,0.02,4,Rain,25
2012-12-6,57,48,38,46,41,31,86,71,56,30.15,30.10,30.06,10,10,6,12,5,18,0.00,7,,164
2012-12-7,60,55,49,49,47,42,86,77,67,30.06,30.01,29.94,10,10,8,13,6,22,0.00,7,,178
2012-12-8,66,60,54,55,52,48,93,77,60,30.02,29.97,29.93,10,10,7,12,4,18,T,5,,198
2012-12-9,64,61,58,57,55,51,93,83,72,30.03,29.97,29.81,10,9,1,14,7,23,0.17,6,Rain,178
2012-12-10,60,45,30,55,48,27,100,86,72,29.94,29.77,29.66,10,5,1,18,6,23,1.21,8,Rain-Thunderstorm,275
2012-12-11,35,31,27,28,25,23,92,78,64,30.24,30.10,29.94,10,9,4,13,5,16,0.00,5,,5
2012-12-12,45,35,25,23,20,15,88,61,33,30.33,30.29,30.24,10,10,8,15,6,20,0.00,1,,33
2012-12-13,53,37,21,29,21,13,96,59,21,30.39,30.34,30.30,10,10,6,6,0,9,0.00,0,,220
2012-12-14,57,42,26,37,30,25,100,68,36,30.38,30.29,30.16,10,8,0,8,2,12,0.00,0,Fog,163
2012-12-15,58,49,40,49,40,34,86,67,47,30.16,30.04,29.96,10,9,4,18,7,28,0.11,5,Rain,177
2012-12-16,56,53,50,52,50,48,96,90,83,29.94,29.88,29.79,10,8,2,16,8,26,0.57,7,Rain,173
2012-12-17,56,51,46,54,49,44,93,88,83,29.80,29.71,29.62,10,8,2,20,6,25,0.24,7,Rain,216
2012-12-18,52,46,39,43,34,24,86,61,36,29.96,29.87,29.72,10,10,10,17,7,26,0.00,4,,268
2012-12-19,61,47,33,45,39,31,89,69,49,30.08,30.02,29.94,10,10,10,10,4,17,0.00,0,,170
2012-12-20,56,44,32,47,39,23,93,70,47,29.92,29.68,29.52,10,7,2,26,17,47,0.85,7,Rain,196
2012-12-21,37,32,27,21,17,11,75,61,46,30.20,30.02,29.82,10,10,10,30,17,41,T,3,,283
2012-12-22,42,30,18,16,13,9,80,52,24,30.33,30.25,30.16,10,10,10,14,3,21,0.00,0,,282
2012-12-23,48,39,30,39,32,16,100,71,42,30.15,30.05,29.95,10,5,2,8,4,13,0.31,6,Rain,179
2012-12-24,50,44,38,48,42,37,100,96,92,29.97,29.90,29.82,10,3,0,9,3,14,0.54,6,Fog-Rain,223
2012-12-25,47,43,39,43,42,39,100,93,86,30.04,29.95,29.66,10,4,0,16,5,25,0.45,8,Fog-Rain,67
2012-12-26,50,39,27,47,33,26,92,87,82,30.01,29.62,29.40,10,5,0,23,13,33,0.16,8,Fog-Rain-Snow,259
2012-12-27,30,29,27,26,25,24,100,89,78,30.16,30.10,30.02,10,10,5,14,6,22,0.00,8,,6
2012-12-28,39,34,28,34,30,26,93,84,73,30.12,29.97,29.73,10,10,5,16,4,30,0.09,7,Rain,146
2012-12-29,38,34,29,37,28,21,100,95,89,30.28,29.99,29.75,10,5,2,21,10,29,0.19,8,Rain-Snow,292
2012-12-30,37,30,22,23,19,16,84,66,48,30.51,30.42,30.27,10,10,10,18,5,25,0.00,3,,333
2012-12-31,42,33,23,34,24,19,96,68,39,30.36,30.24,30.06,10,10,10,10,2,16,T,4,Rain,183